Location: Tafessasset
(32.5899°N, 5.4824°W)
Time: 09:34:14
(UTC+00:00)

Cosmos 1992 Rocket - Pass Details

Date: 18 February 2020
Orbit: 759 x 766 km, 74.0° (Epoch: 28 March)

Event Time Altitude Azimuth Distance (km) Brightness Sun altitude
Exits shadow 04:59:42 33° 354° (N) 1,264 5.0 -26.5°
Maximum altitude 05:02:04 75° 73° (ENE) 793 4.1 -26.0°
Drops below altitude 10° 05:07:15 10° 159° (SSE) 2,287 6.7 -24.9°
Sets 05:09:36 0° 160° (SSE) 3,208 7.5 -24.4°
